Skip Page Navigation
NASA JPL Caltech
NASA Logo - Jet Propulsion Laboratory + View the NASA Portal
+ Center for Near-Earth Object Studies
JPL Home Earth Solar System Stars & Galaxies Technology
JPL Solar System Dynamics
BODIES ORBITS EPHEMERIDES TOOLS PHYSICAL DATA DISCOVERY FAQ SITE MAP
IMPORTANT: The SSD Announcement email list is now available. Major changes are coming in the near future, including possible hostname and/or URL changes. To be notified of such changes, subscribe to this email list.

Please visit this page for more details.


JPL Small-Body Database Browser
Search: [ help ]  
13592 (1994 JU)
Classification: Main-belt Asteroid          SPK-ID: 2013592
Ephemeris | Orbit Diagram | Orbital Elements | Mission Design | Physical Parameters | Discovery Circumstances | Close-Approach Data ]

[ show orbit diagram ]
Orbital Elements at Epoch 2459000.5 (2020-May-31.0) TDB
Reference: JPL 26 (heliocentric ecliptic J2000)
 Element Value Uncertainty (1-sigma)   Units 
e .1900165722232735 3.2109e-08  
a 2.328198025866524 7.1193e-09 au
q 1.885801817534374 7.4897e-08 au
i 6.308940135826496 4.4665e-06 deg
node 203.8968312557813 3.654e-05 deg
peri 63.09405657261846 3.8631e-05 deg
M 100.2187480482372 1.294e-05 deg
tp 2458639.277516467829
(2019-Jun-04.77751647)
4.6063e-05 TDB
period 1297.562547967479
3.55
5.9517e-06
1.629e-08
d
yr
n .2774432728225003 1.2726e-09 deg/d
Q 2.770594234198673 8.4721e-09 au
  Orbit Determination Parameters
   # obs. used (total)      1322  
   data-arc span      10191 days (27.90 yr)  
   first obs. used      1991-10-06  
   last obs. used      2019-08-31  
   planetary ephem.      DE431  
   SB-pert. ephem.      SB431-N16  
   condition code      0  
   norm. resid. RMS      .53761  
   source      ORB  
   producer      Otto Matic  
   solution date      2019-Sep-24 01:15:30  

Additional Information
 Earth MOID = .880341 au 
 Jupiter MOID = 2.3279 au 
 T_jup = 3.540 
[ show covariance matrix ]

Ephemeris | Orbit Diagram | Orbital Elements | Mission Design | Physical Parameters | Discovery Circumstances | Close-Approach Data ]

Physical Parameter Table
Parameter Symbol Value Units Sigma Reference Notes
absolute magnitude H 14.8   n/a MPO337373  
diameter diameter 3.425 km 0.948 urn:nasa:pds:neowise_diameters_albedos::2.0[mainbelt] (http://adsabs.harvard.edu/abs/2011ApJ...741...68M)  
geometric albedo albedo 0.218   0.160 urn:nasa:pds:neowise_diameters_albedos::2.0[mainbelt] (http://adsabs.harvard.edu/abs/2011ApJ...741...68M)  

13592 (1994 JU)          Discovered 1994-May-08 by Kobayashi, T. at Oizumi
Reference: 20000222/Numbers.arcLast Updated: 2004-04-19

[ hide close-approach data ]
Close-Approach Data   ...sorted by Date/Time (TDB)
Date/Time (TDB) Time Uncertainty
(days_HH:MM)
Body Nominal Distance (au) Minimum Distance (au) Maximum Distance (au) V-relative (km/s) V-infinity (km/s) JD (TDB) Time Uncertainty (minutes) Semi-major axis (km) Semi-minor axis (km) range-LOV angle (deg) N-sigma BP Orbit Ref. Reference Modified
1987-Dec-01 23:21 < 00:01 Iris 0.0491372180313127 0.0491349111241769 0.0491395249526647 8.45386428143885 8.45386426759977 2447131.472954849 0.181482882503309 122.991590546846 33.3557272106287 21.5833936128592 98273.5892910712 T 26 CATAB v2.0f-lin.ifort 2019-Sep-24 01:15:35 2019-Sep-24 01:15
2110-Nov-24 06:24 < 00:01 Iris 0.0266279986787496 0.0266258358575817 0.0266301648779964 7.96077024909103 7.96077022197167 2492048.766376576 0.586972332587487 518.136036914757 38.8059569488116 78.7613874151098 100678.014188883 T 26 CATAB v2.0f-lin.ifort 2019-Sep-24 01:15:35 2019-Sep-24 01:15

Alternate Designations
 1994 JU = 1991 TZ7 
Ephemeris | Orbit Diagram | Orbital Elements | Mission Design | Physical Parameters | Discovery Circumstances | Close-Approach Data ]
ABOUT SSD CREDITS/AWARDS PRIVACY/COPYRIGHT GLOSSARY LINKS
FirstGov 2020-Feb-26 01:24 UT
(server date/time)  
NASA Home Page
Site Manager:   Ryan S. Park
Webmaster  Alan B. Chamberlin